Location: Rounton
(54.4000°N, 1.3500°W)
Time: 22:25:12
(UTC+00:00)

Explorer 7 - Pass Details

Date: 07 December 2021
Orbit: 483 x 674 km, 50.3° (Epoch: 17 January)

Event Time Altitude Azimuth Distance (km) Brightness Sun altitude
Rises 10:23:41 0° 275° (W) 2,675 10.1 10.4°
Reaches altitude 10° 10:26:44 10° 251° (WSW) 1,743 9.4 10.5°
Maximum altitude 10:28:56 15° 217° (SW) 1,454 9.5 10.7°
Drops below altitude 10° 10:31:05 10° 182° (S) 1,695 10.9 10.8°
Sets 10:33:59 0° 158° (SSE) 2,552 12.5 10.9°
